Location: Unspecified
(0.0000°N, 0.0000°E)
Time: 22:36:37
(UTC+00:00)

Vanguard 2 - Pass Details

Date: 08 October 2020
Orbit: 554 x 2937 km, 32.9° (Epoch: 27 October)

Event Time Altitude Azimuth Distance (km) Brightness Sun altitude
Rises 11:48:01 0° 270° (W) 2,750 10.4 83.8°
Reaches altitude 10° 11:50:43 10° 248° (WSW) 1,963 9.8 83.8°
Maximum altitude 11:53:40 17° 205° (SSW) 1,711 9.7 83.6°
Drops below altitude 10° 11:57:14 10° 164° (SSE) 2,450 10.3 83.4°
Sets 12:01:14 0° 145° (SE) 3,795 11.1 82.9°
